KD3ADD Weather Reports


time (UTC)temp
F
wind
direction
speed
knots
gust
knots
rain 1hr
in
rain 24hr
in
rain mn
in
humidity
%
barometer
mb
20260505182036 81 207 2.6 7.8 0.00 0.00 0.00 36 1008.3
20260505181547 81 247 1.7 7.8 0.00 0.00 0.00 36 1008.4
20260505181035 81 296 2.6 10.4 0.00 0.00 0.00 34 1008.4
20260505180536 81 192 3.5 10.4 0.00 0.00 0.00 36 1008.6
20260505180047 81 352 2.6 11.3 0.00 0.00 0.00 38 1008.6
20260505175536 81 256 1.7 11.3 0.00 0.00 0.00 38 1008.6
20260505175036 81 279 3.5 11.3 0.00 0.00 0.00 36 1008.6
20260505174552 81 227 3.5 11.3 0.00 0.00 0.00 37 1008.7
20260505174036 81 268 3.5 9.6 0.00 0.00 0.00 37 1008.7
20260505173535 81 261 2.6 9.6 0.00 0.00 0.00 34 1008.8
20260505173054 80 276 3.5 9.6 0.00 0.00 0.00 37 1008.8
20260505172534 80 244 3.5 9.6 0.00 0.00 0.00 38 1008.8
20260505172034 80 222 4.3 9.6 0.00 0.00 0.00 37 1008.7
20260505171548 80 302 1.7 9.6 0.00 0.00 0.00 38 1008.9
20260505171036 80 238 3.5 13.9 0.00 0.00 0.00 39 1008.9
20260505170535 80 175 4.3 13.9 0.00 0.00 0.00 36 1008.9
20260505165534 80 225 3.5 10.4 0.00 0.00 0.00 36 1009.0
20260505165037 80 268 3.5 9.6 0.00 0.00 0.00 35 1009.0
20260505164550 80 251 3.5 10.4 0.00 0.00 0.00 39 1009.2
20260505164034 80 243 1.7 10.4 0.00 0.00 0.00 39 1009.3
20260505163535 80 324 4.3 10.4 0.00 0.00 0.00 40 1009.5
20260505163052 80 288 2.6 7.0 0.00 0.00 0.00 40 1009.5
20260505162535 79 250 1.7 7.0 0.00 0.00 0.00 42 1009.5
20260505162035 79 205 2.6 7.8 0.00 0.00 0.00 41 1009.6
20260505161547 79 255 3.5 7.8 0.00 0.00 0.00 41 1009.6
20260505161035 79 312 2.6 7.8 0.00 0.00 0.00 44 1009.7
20260505160537 79 290 2.6 7.8 0.00 0.00 0.00 41 1009.7
20260505153049 76 259 2.6 8.7 0.00 0.00 0.00 46 1009.8
20260505152535 76 225 1.7 8.7 0.00 0.00 0.00 45 1009.7
20260505152034 76 178 3.5 8.7 0.00 0.00 0.00 44 1009.7
20260505151556 76 300 1.7 5.2 0.00 0.00 0.00 46 1009.7
20260505151034 76 242 1.7 5.2 0.00 0.00 0.00 46 1009.7
20260505150537 75 276 1.7 7.8 0.00 0.00 0.00 49 1009.7
20260505140535 70 207 0.9 6.1 0.00 0.00 0.00 53 1010.4
20260505125037 65 260 1.7 4.3 0.00 0.00 0.00 62 1011.0
20260505124543 65 207 0.9 2.6 0.00 0.00 0.00 63 1011.1
20260505124038 65 241 0.9 3.5 0.00 0.00 0.00 64 1011.1
20260505123538 64 246 0.9 3.5 0.00 0.00 0.00 63 1011.0
20260505123051 64 265 0.9 3.5 0.00 0.00 0.00 66 1011.0
20260505122535 63 222 1.7 3.5 0.00 0.00 0.00 66 1011.1
20260505122035 62 229 0.0 2.6 0.00 0.00 0.00 69 1011.0
20260505121611 62 295 0.0 1.7 0.00 0.00 0.00 69 1011.0
20260505121035 61 184 0.9 1.7 0.00 0.00 0.00 70 1011.0
20260505120536 60 284 0.0 1.7 0.00 0.00 0.00 72 1010.9
20260505120048 60 0 0.0 1.7 0.00 0.00 0.00 72 1010.8
20260505115539 60 0 0.0 1.7 0.00 0.00 0.00 73 1010.8
20260505115036 59 0 0.0 1.7 0.00 0.00 0.00 74 1010.7
20260505114546 59 170 0.0 1.7 0.00 0.00 0.00 72 1010.8
20260505114036 60 170 0.0 1.7 0.00 0.00 0.00 70 1010.7
20260505113536 59 170 0.0 0.9 0.00 0.00 0.00 71 1010.6
20260505113046 59 157 0.0 0.9 0.00 0.00 0.00 72 1010.6
20260505112535 58 153 0.0 1.7 0.00 0.00 0.00 74 1010.5
20260505112036 56 122 0.0 1.7 0.00 0.00 0.00 76 1010.4
20260505111548 55 0 0.0 1.7 0.00 0.00 0.00 76 1010.4
20260505111036 55 70 0.0 1.7 0.00 0.00 0.00 77 1010.4
20260505110536 55 0 0.0 1.7 0.00 0.00 0.00 76 1010.4
20260505102036 56 33 0.9 1.7 0.00 0.00 0.00 74 1009.9
20260505101554 56 324 0.0 1.7 0.00 0.00 0.00 74 1010.0
20260505101037 56 325 0.0 1.7 0.00 0.00 0.00 73 1010.0
20260505100538 56 0 0.0 1.7 0.00 0.00 0.00 73 1009.9
20260505100046 56 333 0.0 1.7 0.00 0.00 0.00 73 1009.7
20260505095537 56 0 0.0 1.7 0.00 0.00 0.00 72 1009.6
20260505095036 56 0 0.0 1.7 0.00 0.00 0.00 72 1009.7
20260505094549 56 0 0.0 1.7 0.00 0.00 0.00 72 1009.8
20260505094036 56 0 0.0 1.7 0.00 0.00 0.00 71 1009.8
20260505093536 57 330 0.0 1.7 0.00 0.00 0.00 70 1009.8
20260505093045 57 9 0.0 1.7 0.00 0.00 0.00 69 1009.8
20260505092537 57 0 0.0 1.7 0.00 0.00 0.00 68 1009.7
20260505092034 58 44 0.0 1.7 0.00 0.00 0.00 68 1009.6
20260505091550 58 0 0.0 1.7 0.00 0.00 0.00 67 1009.6
20260505091037 58 0 0.0 1.7 0.00 0.00 0.00 67 1009.5
20260505090535 59 71 0.0 1.7 0.00 0.00 0.00 66 1009.5
20260505090101 59 0 0.0 1.7 0.00 0.00 0.00 66 1009.4
20260505085537 60 291 0.0 1.7 0.00 0.00 0.00 65 1009.4
20260505085036 60 0 0.0 1.7 0.00 0.00 0.00 65 1009.3
20260505084551 60 0 0.0 1.7 0.00 0.00 0.00 65 1009.4
20260505084036 60 0 0.0 1.7 0.00 0.00 0.00 65 1009.5
20260505083535 60 0 0.0 1.7 0.00 0.00 0.00 64 1009.4
20260505083056 60 0 0.0 0.9 0.00 0.00 0.00 64 1009.5
20260505082536 60 0 0.0 0.9 0.00 0.00 0.00 64 1009.5
20260505082034 60 0 0.0 0.0 0.00 0.00 0.00 63 1009.4
20260505081548 61 0 0.0 1.7 0.00 0.00 0.00 63 1009.4
20260505081036 61 0 0.0 1.7 0.00 0.00 0.00 63 1009.4
20260505080534 61 0 0.0 1.7 0.00 0.00 0.00 63 1009.3
20260505080055 61 0 0.0 1.7 0.00 0.00 0.00 62 1009.4
20260505075537 61 0 0.0 1.7 0.00 0.00 0.00 62 1009.4
20260505075035 62 0 0.0 1.7 0.00 0.00 0.00 62 1009.3
20260505074549 62 0 0.0 1.7 0.00 0.00 0.00 61 1009.2
20260505074034 62 0 0.0 1.7 0.00 0.00 0.00 61 1009.2
20260505073534 62 298 0.0 1.7 0.00 0.00 0.00 60 1009.2
20260505073046 62 0 0.0 1.7 0.00 0.00 0.00 60 1009.1
20260505072535 62 0 0.0 1.7 0.00 0.00 0.00 60 1009.1
20260505072034 63 0 0.0 1.7 0.00 0.00 0.00 60 1009.0
20260505071545 63 0 0.0 1.7 0.00 0.00 0.00 59 1009.0
20260505071035 63 0 0.0 1.7 0.00 0.00 0.00 59 1009.0
20260505070538 63 0 0.0 2.6 0.00 0.00 0.00 59 1009.1
20260505070046 63 273 0.9 2.6 0.00 0.00 0.00 59 1009.1
20260505065535 63 0 0.0 2.6 0.00 0.00 0.00 60 1009.2
20260505065034 63 227 0.9 1.7 0.00 0.00 0.00 60 1009.1
20260505064544 63 0 0.0 1.7 0.00 0.00 0.00 59 1009.1
20260505064034 63 251 0.9 2.6 0.00 0.00 0.00 59 1009.2
20260505063535 63 244 0.9 2.6 0.00 0.00 0.00 59 1009.2
20260505063044 63 251 0.9 2.6 0.00 0.00 0.00 59 1009.2
20260505062535 63 244 1.7 2.6 0.00 0.00 0.00 59 1009.2
20260505062034 63 238 0.9 2.6 0.00 0.00 0.00 60 1009.3
20260505061549 63 232 0.9 2.6 0.00 0.00 0.00 60 1009.3
20260505061035 63 204 0.0 1.7 0.00 0.00 0.00 60 1009.3
20260505060534 63 243 0.0 1.7 0.00 0.00 0.00 60 1009.4
20260505060051 63 0 0.0 1.7 0.00 0.00 0.00 60 1009.3
20260505055535 63 240 0.9 1.7 0.00 0.00 0.00 60 1009.4
20260505055035 63 223 0.9 1.7 0.00 0.00 0.00 60 1009.4
20260505054552 63 242 0.9 1.7 0.00 0.00 0.00 60 1009.4
20260505054035 63 226 0.9 1.7 0.00 0.00 0.00 60 1009.4
20260505053534 63 236 0.9 1.7 0.00 0.00 0.00 60 1009.4
20260505053049 63 236 0.0 1.7 0.00 0.00 0.00 60 1009.4
20260505052534 63 236 0.0 1.7 0.00 0.00 0.00 60 1009.4
20260505052038 63 236 0.9 1.7 0.00 0.00 0.00 60 1009.4
20260505051545 62 336 0.9 1.7 0.00 0.00 0.00 59 1009.4
20260505051036 62 243 0.9 2.6 0.00 0.00 0.00 60 1009.4
20260505050537 62 249 0.0 2.6 0.00 0.00 0.00 60 1009.4
20260505041546 61 196 0.9 1.7 0.00 0.00 0.00 57 1009.1
20260505041037 61 219 0.9 1.7 0.00 0.00 0.00 57 1009.1
20260505040536 61 225 0.9 3.5 0.00 0.00 0.00 57 1009.1
20260505040053 61 236 0.9 3.5 0.00 0.00 0.00 57 1009.0
20260505035535 61 0 0.9 1.7 0.00 0.00 0.00 57 1009.0
20260505035035 61 265 0.9 1.7 0.00 0.00 0.00 56 1009.1
20260505034543 62 184 0.9 1.7 0.00 0.00 0.00 56 1009.1
20260505034036 62 244 0.0 1.7 0.00 0.00 0.00 55 1009.1
20260505033535 62 248 0.0 1.7 0.00 0.00 0.00 54 1009.1
20260505033106 63 0 0.0 1.7 0.00 0.00 0.00 53 1009.1
20260505032536 63 0 0.0 1.7 0.00 0.00 0.00 53 1009.1
20260505032036 63 0 0.0 1.7 0.00 0.00 0.00 52 1009.1
20260505031546 64 0 0.0 0.9 0.00 0.00 0.00 52 1009.1
20260505031036 64 0 0.0 1.7 0.00 0.00 0.00 51 1009.0
20260505030536 64 0 0.0 1.7 0.00 0.00 0.00 51 1009.1
20260505030058 64 205 0.0 2.6 0.00 0.00 0.00 51 1009.1
20260505025536 64 241 0.9 2.6 0.00 0.00 0.00 51 1009.0
20260505025035 64 242 0.9 3.5 0.00 0.00 0.00 51 1009.0
20260505024546 64 243 0.0 3.5 0.00 0.00 0.00 51 1008.9
20260505024035 64 313 0.9 2.6 0.00 0.00 0.00 50 1008.8
20260505023535 64 209 0.9 4.3 0.00 0.00 0.00 51 1008.8
20260505023058 64 205 1.7 4.3 0.00 0.00 0.00 50 1008.8
20260505022536 64 185 1.7 3.5 0.00 0.00 0.00 50 1008.7
20260505022035 64 209 1.7 5.2 0.00 0.00 0.00 50 1008.7
20260505021544 65 205 2.6 5.2 0.00 0.00 0.00 49 1008.7
20260505021035 65 202 2.6 5.2 0.00 0.00 0.00 50 1008.7
20260505020535 65 154 1.7 5.2 0.00 0.00 0.00 49 1008.7
20260505020051 65 200 1.7 6.1 0.00 0.00 0.00 49 1008.8
20260505015538 65 199 1.7 6.1 0.00 0.00 0.00 49 1008.9
20260505015038 65 206 1.7 5.2 0.00 0.00 0.00 48 1008.8
20260505014548 65 234 1.7 6.1 0.00 0.00 0.00 48 1008.7
20260505014035 65 244 2.6 6.1 0.00 0.00 0.00 48 1008.6
20260505013535 65 183 2.6 7.0 0.00 0.00 0.00 47 1008.6
20260505013047 66 170 2.6 7.0 0.00 0.00 0.00 47 1008.7
20260505012535 66 232 1.7 4.3 0.00 0.00 0.00 47 1008.8
20260505012036 66 239 1.7 4.3 0.00 0.00 0.00 47 1008.8
20260505011552 66 184 1.7 5.2 0.00 0.00 0.00 46 1008.8
20260505011036 67 220 2.6 6.1 0.00 0.00 0.00 46 1008.7
20260505010534 67 234 1.7 6.1 0.00 0.00 0.00 45 1008.6
20260505010044 67 236 2.6 7.0 0.00 0.00 0.00 45 1008.5
20260505005535 68 214 1.7 7.0 0.00 0.00 0.00 44 1008.4
20260505005035 68 225 2.6 5.2 0.00 0.00 0.00 44 1008.3
20260505004551 68 237 1.7 4.3 0.00 0.00 0.00 43 1008.3
20260505004037 68 234 1.7 4.3 0.00 0.00 0.00 43 1008.2
20260505003537 68 197 1.7 4.3 0.00 0.00 0.00 43 1008.1
20260505003044 69 227 0.9 4.3 0.00 0.00 0.00 43 1008.1
20260505002536 69 216 1.7 2.6 0.00 0.00 0.00 42 1008.2
20260505002037 69 231 0.9 3.5 0.00 0.00 0.00 42 1008.2
20260505001544 69 211 0.9 4.3 0.00 0.00 0.00 42 1008.1
20260505001035 69 232 1.7 4.3 0.00 0.00 0.00 41 1008.0
20260505000539 69 248 0.9 4.3 0.00 0.00 0.00 41 1008.1
20260505000048 70 215 1.7 4.3 0.00 0.00 0.00 40 1008.1
20260504235537 70 187 1.7 4.3 0.00 0.00 0.00 41 1008.0
20260504235039 70 207 1.7 5.2 0.00 0.00 0.00 41 1008.0
20260504234613 70 214 2.6 5.2 0.00 0.00 0.00 40 1007.9
20260504234037 70 251 1.7 5.2 0.00 0.00 0.00 40 1007.9
20260504233537 71 241 1.7 5.2 0.00 0.00 0.00 40 1007.9
20260504233050 71 242 2.6 5.2 0.00 0.00 0.00 39 1007.9
20260504232538 71 196 2.6 6.1 0.00 0.00 0.00 39 1007.9
20260504232036 71 192 1.7 7.0 0.00 0.00 0.00 40 1007.9
20260504231554 71 223 3.5 7.8 0.00 0.00 0.00 39 1007.9
20260504231036 71 139 2.6 8.7 0.00 0.00 0.00 39 1008.0
20260504230535 71 227 3.5 8.7 0.00 0.00 0.00 39 1007.9
20260504230052 71 244 2.6 7.0 0.00 0.00 0.00 39 1007.9
20260504225536 71 224 3.5 7.0 0.00 0.00 0.00 40 1007.9
20260504225035 71 159 1.7 8.7 0.00 0.00 0.00 40 1007.9
20260504224546 72 243 2.6 8.7 0.00 0.00 0.00 39 1007.9
20260504224035 72 240 2.6 7.0 0.00 0.00 0.00 38 1008.0
20260504223535 72 181 2.6 8.7 0.00 0.00 0.00 38 1008.0
20260504223049 72 211 2.6 8.7 0.00 0.00 0.00 41 1008.0
20260504222536 72 245 3.5 7.8 0.00 0.00 0.00 38 1008.0
20260504222035 72 250 2.6 6.1 0.00 0.00 0.00 38 1008.0
20260504221557 72 237 2.6 9.6 0.00 0.00 0.00 38 1008.1
20260504221036 72 196 4.3 9.6 0.00 0.00 0.00 37 1008.1
20260504220535 73 205 6.1 9.6 0.00 0.00 0.00 36 1008.1
20260504220050 73 236 2.6 7.0 0.00 0.00 0.00 38 1008.1
20260504215536 73 202 3.5 7.8 0.00 0.00 0.00 37 1008.1
20260504215035 73 209 3.5 7.8 0.00 0.00 0.00 36 1008.1
20260504214551 73 192 3.5 9.6 0.00 0.00 0.00 37 1008.1
20260504214035 73 196 3.5 9.6 0.00 0.00 0.00 37 1008.1
20260504213535 73 251 3.5 10.4 0.00 0.00 0.00 36 1008.1
20260504213100 73 189 2.6 10.4 0.00 0.00 0.00 37 1008.1
20260504212535 73 219 3.5 10.4 0.00 0.00 0.00 36 1008.1
20260504212036 73 248 3.5 8.7 0.00 0.00 0.00 37 1008.1
20260504211549 73 199 1.7 8.7 0.00 0.00 0.00 36 1008.1
20260504211035 73 254 4.3 8.7 0.00 0.00 0.00 36 1008.0
20260504210535 73 215 2.6 7.8 0.00 0.00 0.00 36 1008.0
20260504210056 74 189 2.6 7.8 0.00 0.00 0.00 37 1008.0
20260504205535 74 229 2.6 6.1 0.00 0.00 0.00 36 1008.0
20260504205035 74 291 1.7 6.1 0.00 0.00 0.00 37 1008.1
20260504204622 73 211 2.6 6.1 0.00 0.00 0.00 36 1008.1
20260504204035 73 352 2.6 7.8 0.00 0.00 0.00 37 1008.2
20260504203539 73 257 3.5 7.8 0.00 0.00 0.00 37 1008.1
20260504203045 72 299 3.5 9.6 0.00 0.00 0.00 38 1008.3
20260504202535 73 171 5.2 9.6 0.00 0.00 0.00 36 1008.3
20260504202038 73 248 3.5 8.7 0.00 0.00 0.00 37 1008.5
20260504201548 73 229 1.7 7.8 0.00 0.00 0.00 37 1008.6
20260504201036 72 230 3.5 8.7 0.00 0.00 0.00 36 1008.6
20260504200535 72 217 3.5 9.6 0.00 0.00 0.00 37 1008.6
20260504200054 72 248 5.2 9.6 0.00 0.00 0.00 36 1008.8
20260504195536 72 220 3.5 7.8 0.00 0.00 0.00 37 1008.8
20260504195041 73 177 4.3 10.4 0.00 0.00 0.00 36 1009.0
20260504194553 73 188 2.6 10.4 0.00 0.00 0.00 37 1009.0
20260504194037 73 315 3.5 7.8 0.00 0.00 0.00 37 1009.2
20260504193536 73 244 3.5 7.8 0.00 0.00 0.00 38 1009.2
20260504193047 73 239 3.5 11.3 0.00 0.00 0.00 36 1009.2
20260504192536 73 218 3.5 11.3 0.00 0.00 0.00 38 1009.3
20260504192037 73 230 3.5 8.7 0.00 0.00 0.00 37 1009.4
20260504191550 73 236 1.7 10.4 0.00 0.00 0.00 40 1009.5
20260504191037 72 257 3.5 11.3 0.00 0.00 0.00 37 1009.6
20260504190536 72 112 4.3 11.3 0.00 0.00 0.00 36 1009.6
20260504190057 72 246 2.6 7.0 0.00 0.00 0.00 37 1009.7
20260504185536 72 190 2.6 10.4 0.00 0.00 0.00 38 1009.8
20260504185037 73 211 2.6 9.6 0.00 0.00 0.00 36 1010.0
20260504184604 73 192 2.6 10.4 0.00 0.00 0.00 40 1010.0
20260504184037 72 183 1.7 10.4 0.00 0.00 0.00 36 1010.0
20260504183538 72 225 3.5 10.4 0.00 0.00 0.00 37 1010.1
20260504183053 72 242 3.5 8.7 0.00 0.00 0.00 37 1010.1
20260504182539 72 239 1.7 6.1 0.00 0.00 0.00 38 1010.2